Regional Weather Roundup
Issued by NWS

Home | Current Version | Previous Version | Text Only | Print | Product List | Glossary Off
Versions: 1 2 3 4 5 6 7 8 9 10 11 12 13 14 15 16 17 18 19 20 21 22 23 24 25 26 27 28 29 30 31 32 33 34 35 36 37 38 39 40 41 42 43 44 45 46 47 48 49 50

000
ASUS43 KLMK 310910
RWRKY
KENTUCKY REGIONAL WEATHER ROUNDUP
NATIONAL WEATHER SERVICE LOUISVILLE KY
500 AM EDT FRI JUL 31 2015

NOTE "FAIR" INDICATES FEW OR NO CLOUDS BELOW 12,000 FEET
WITH NO SIGNIFICANT WEATHER AND/OR OBSTRUCTIONS TO VISIBILITY.

KYZ001>023-026-027-061>063-070>075-311000-
WESTERN AND SOUTH CENTRAL KENTUCKY

CITY           SKY/WX    TMP DP  RH WIND       PRES   REMARKS
PADUCAH        CLEAR     66  64  93 CALM      30.08R
HENDERSON      CLEAR    N/A N/A N/A MISG        N/A
OWENSBORO      PTCLDY    69  65  87 CALM      30.06F
HOPKINSVILLE   CLEAR     67  64  89 NW2       30.07S
BOWLING GREEN  CLEAR     66  62  87 CALM      30.07S
GLASGOW        CLEAR    N/A N/A N/A CALM      30.07S
$$

KYZ024-025-028>034-038-045-046-053-311000-
NORTH CENTRAL KENTUCKY

CITY           SKY/WX    TMP DP  RH WIND       PRES   REMARKS
LOUISVILLE/SDF PTCLDY    71  62  73 W3        30.05S
LOUISVILLE/LOU CLEAR     67  62  84 CALM      30.06S
FORT KNOX      CLEAR     64  61  88 CALM      30.05F
$$

KYZ035>037-039>044-047>052-055>060-089>105-311000-
NORTHEAST KENTUCKY

CITY           SKY/WX    TMP DP  RH WIND       PRES   REMARKS
LEXINGTON      CLEAR     65  60  84 CALM      30.07S
COVINGTON      CLEAR     66  62  86 CALM      30.05F
FRANKFORT      CLEAR     63  59  87 CALM      30.05F
$$

KYZ054-064>069-076>088-106>120-311000-
SOUTHEAST KENTUCKY

CITY           SKY/WX    TMP DP  RH WIND       PRES   REMARKS
JACKSON        PTCLDY    67  57  70 NW3       30.07S
LONDON         CLEAR     63  58  83 CALM      30.08S
SOMERSET       CLEAR     59  59 100 CALM      30.09S
MIDDLESBORO    CLEAR     61  61 100 CALM      30.09S
MONTICELLO     FOG       59  59 100 CALM      30.10F VSB 1
$$



USA.gov is the U.S. government's official web portal to all federal, state and local government web resources and services.